This demonstration page uses our WeatherBlox Daily Observations layout. Learn more.

Left ArrowRight Arrow

Hourly Observations for August 13, 2019

Temp ( °F °C ) Dew Point ( °F °C ) Humidity (%) Winds ( mph kmh ) Pressure ( in mb ) Visibility ( mi km ) Precip ( " mm )
12:53 am 00:53 Cloudy 74 23.3 71 21.7 91 91 VRB 3 6 29.83 1010 10 16 0.00 0.00
1:44 am 01:44 Cloudy with Nearby Thunderstorms 75 23.9 71 21.7 88 88 Calm 29.81 1009 10 16 0.00 0.00
1:53 am 01:53 Cloudy with Nearby Thunderstorms 73 22.8 72 22.2 96 96 S 5 7 29.81 1009 2 3 0.00 0.00
2:00 am 02:00 Cloudy with Nearby Thunderstorms 73 22.8 72 22.2 96 96 VRB 3 6 29.81 1009 1 2 0.00 0.00
2:11 am 02:11 Cloudy with Thunderstorms 73 22.8 72 22.2 96 96 Calm 29.81 1009 1 2 0.00 0.00
2:17 am 02:17 Cloudy with Thunderstorms 73 22.8 72 22.2 96 96 VRB 3 6 29.82 1010 3 5 0.00 0.00
2:28 am 02:28 Cloudy with Thunderstorms 73 22.8 72 22.2 96 96 VRB 3 6 29.82 1010 3 5 0.00 0.00
2:30 am 02:30 Cloudy with Strong Thunderstorms 73 22.8 72 22.2 96 96 ESE 5 7 29.83 1010 2 3 0.00 0.00
2:33 am 02:33 Cloudy with Strong Thunderstorms 73 22.8 72 22.2 96 96 NE 6 9 29.83 1010 1 1 0.00 0.00
2:41 am 02:41 Cloudy with Strong Thunderstorms 73 22.8 72 22.2 96 96 NE 9 15 29.81 1009 1 1 0.00 0.00
2:50 am 02:50 Cloudy with Strong Thunderstorms 73 23 72 22 94 94 NNE 10 17 29.82 1010 1 2 0.00 0.00
2:53 am 02:53 Cloudy with Strong Thunderstorms 73 22.8 72 22.2 96 96 NE 15 24 29.78 1009 1 2 0.00 0.00
3:00 am 03:00 Cloudy with Strong Thunderstorms 73 22.8 72 22.2 96 96 NNE 12 19 29.79 1009 1 1 0.03 0.76
3:08 am 03:08 Cloudy with Thunderstorms 73 22.8 72 22.2 96 96 VRB 5 7 29.79 1009 2 3 0.13 3.30
3:10 am 03:10 Cloudy with Thunderstorms 73 22.8 72 22.2 96 96 VRB 6 9 29.78 1008 3 5 0.18 4.57
3:15 am 03:15 Cloudy with Thunderstorms 73 22.8 72 22.2 96 96 VRB 6 9 29.79 1009 2 3 0.34 8.64
3:19 am 03:19 Cloudy with Strong Thunderstorms 73 22.8 72 22.2 96 96 VRB 6 9 29.77 1008 1 1 0.43 10.92
3:31 am 03:31 Cloudy with Thunderstorms 73 22.8 72 22.2 96 96 Calm 29.76 1008 2 3 0.77 19.56
3:33 am 03:33 Cloudy with Thunderstorms 73 22.8 72 22.2 96 96 Calm 29.76 1008 3 5 0.84 21.34
3:48 am 03:48 Cloudy with Nearby Thunderstorms 73 23 72 22 94 94 Calm 29.75 1007 10 16 0.00 0.00
3:53 am 03:53 Cloudy 73 22.8 72 22.2 96 96 Calm 29.75 1007 9 14 0.00 0.00
4:02 am 04:02 Cloudy with Nearby Thunderstorms 74 23.3 72 22.2 94 94 S 5 7 29.75 1007 9 14 0.00 0.00
4:11 am 04:11 Cloudy with Nearby Thunderstorms 74 23.3 72 22.2 94 94 VRB 5 7 29.75 1007 8 13 0.00 0.00
4:30 am 04:30 Cloudy 74 23.3 73 22.8 97 97 Calm 29.75 1007 9 14 0.00 0.00
4:53 am 04:53 Cloudy with Nearby Thunderstorms 74 23.3 72 22.2 94 94 VRB 3 6 29.75 1008 10 16 0.00 0.00
5:07 am 05:07 Cloudy 74 23.3 73 22.8 97 97 NNE 12 19 29.79 1009 10 16 0.00 0.00
5:53 am 05:53 Partly Cloudy 74 23.3 72 22.2 94 94 E 3 6 29.79 1009 9 14 0.00 0.00
6:53 am 06:53 Sunny 73 22.8 72 22.2 96 96 Calm 29.79 1009 10 16 0.00 0.00
7:53 am 07:53 Mostly Sunny 74 23.3 72 22.2 94 94 Calm 29.81 1009 10 16 0.00 0.00
8:53 am 08:53 Mostly Cloudy 76 24.4 73 22.8 91 91 S 3 6 29.81 1009 10 16 0.00 0.00
9:53 am 09:53 Cloudy 77 25 73 22.8 88 88 VRB 6 9 29.83 1010 10 16 0.00 0.00
10:32 am 10:32 Cloudy 78 25.6 72 22.2 82 82 VRB 5 7 29.81 1010 10 16 0.00 0.00
10:46 am 10:46 Cloudy 78 25.6 73 22.8 85 85 SW 6 9 29.82 1010 10 16 0.00 0.00
10:53 am 10:53 Cloudy 78 25.6 72 22.2 82 82 WSW 8 13 29.83 1010 10 16 0.00 0.00
11:30 am 11:30 Cloudy 78 25.6 72 22.2 82 82 SW 6 9 29.82 1010 10 16 0.00 0.00
11:53 am 11:53 Cloudy 79 26.1 72 22.2 79 79 SW 8 13 29.84 1010 10 16 0.00 0.00
12:28 pm 12:28 Cloudy 80 26.7 72 22.2 76 76 WSW 10 17 29.80 1009 10 16 0.00 0.00
12:53 pm 12:53 Cloudy 80 26.7 72 22.2 76 76 WSW 8 13 29.81 1009 10 16 0.00 0.00
1:53 pm 13:53 Cloudy 83 28.3 72 22.2 70 70 WNW 13 20 29.79 1009 10 16 0.00 0.00
2:53 pm 14:53 Partly Cloudy 84 28.9 73 22.8 70 70 WNW 10 17 29.78 1009 10 16 0.00 0.00
3:53 pm 15:53 Mostly Cloudy 82 27.8 73 22.8 74 74 NNW 7 11 29.79 1009 10 16 0.00 0.00
4:04 pm 16:04 Cloudy 82 27.8 73 22.8 74 74 WNW 12 19 29.78 1008 10 16 0.00 0.00
4:53 pm 16:53 Cloudy 83 28.3 73 22.8 72 72 VRB 7 11 29.81 1009 10 16 0.00 0.00
5:53 pm 17:53 Sunny 85 29.4 72 22.2 65 65 VRB 6 9 29.79 1009 10 16 0.00 0.00
6:53 pm 18:53 Mostly Sunny 86 30 72 22.2 63 63 WNW 8 13 29.79 1009 10 16 0.00 0.00
7:53 pm 19:53 Mostly Cloudy with Rain 79 26.1 73 22.8 82 82 NW 24 39 29.83 1010 3 4 0.05 1.27
7:56 pm 19:56 Mostly Cloudy with Heavy Rain 76 24.4 72 22.2 88 88 NNW 17 28 29.82 1010 1 1 0.18 4.57
8:07 pm 20:07 Cloudy with Light Rain 74 23.3 71 21.7 91 91 NNW 8 13 29.82 1010 2 3 0.26 6.60
8:14 pm 20:14 Cloudy with Light Rain 75 23.9 72 22.2 90 90 WSW 6 9 29.82 1010 6 10 0.27 6.86
8:53 pm 20:53 Cloudy with Mist and Fog 74 23.3 73 22.8 97 97 Calm 29.83 1010 6 10 0.27 6.86
9:53 pm 21:53 Partly Cloudy with Mist and Fog 73 22.8 72 22.2 96 96 Calm 29.84 1011 4 6 0.00 0.00
10:53 pm 22:53 Clear with Mist and Fog 72 22.2 72 22.2 100 100 Calm 29.85 1011 5 8 0.00 0.00
11:20 pm 23:20 Clear with Mist and Fog 72 22.2 72 22.2 100 100 Calm 29.85 1011 2 3 0.00 0.00
11:26 pm 23:26 Clear with Mist and Fog 72 22.2 72 22.2 100 100 Calm 29.86 1011 1 1 0.00 0.00
11:39 pm 23:39 Mostly Clear with Mist and Fog 72 22.2 72 22.2 100 100 Calm 29.86 1011 2 3 0.00 0.00
11:42 pm 23:42 Mostly Clear with Mist and Fog 72 22.2 72 22.2 100 100 Calm 29.86 1011 3 5 0.00 0.00
11:51 pm 23:51 Mostly Clear with Mist and Fog 72 22 72 22 100 100 Calm 29.86 1011 2 2 0.00 0.00
11:53 pm 23:53 Mostly Clear with Mist and Fog 71 21.7 71 21.7 100 100 Calm 29.87 1011 1 2 0.00 0.00

Powered by AerisWeather